^^
Saratoga-Weather Station Historical Data
Daily Summary for July 6, 2021 Units:  English    Metric   Both
Daily Weekly Monthly Yearly Custom
  High: Low: Average:
Temperature: 48 °F 39.9 °F 44.1 °F
Dew Point: 44.8 °F 37.6 °F 41.5 °F
Humidity: 95% 86% 91%
Wind Speed: 4mph 0mph 1.1mph
Wind Gust: 8mph - -
Wind- - South
Pressure: 29.9 in 29.6 in -
Precipitation: 0.3 in    
Historical Graphs
 
 
Tabular Data for July 6, 2021
Time Temperature Dew Point Pressure Wind Wind Speed Wind Gust Humidity Rainfall Rate (Hourly) solar
01:08 42.1 °F 38.8 °F 29.9 in Calm   1 mph 88% 0 in 0 W/m2
01:13 41.7 °F 38.5 °F 29.9 in Calm     88% 0 in 0 W/m2
01:18 41.5 °F 38.3 °F 29.9 in Calm   1 mph 88% 0 in 0 W/m2
01:23 41.4 °F 38.3 °F 29.9 in Calm     89% 0 in 0 W/m2
01:28 41 °F 37.9 °F 29.9 in Calm   1 mph 89% 0 in 0 W/m2
01:34 40.8 °F 37.8 °F 29.9 in Calm   1 mph 89% 0 in 0 W/m2
01:39 40.6 °F 37.9 °F 29.9 in Calm   1 mph 90% 0 in 0 W/m2
01:44 40.5 °F 37.8 °F 29.9 in North 0.9 mph 1 mph 90% 0 in 0 W/m2
01:49 40.3 °F 37.6 °F 29.9 in Calm     90% 0 in 0 W/m2
01:54 40.3 °F 37.9 °F 29.9 in Calm     91% 0 in 0 W/m2
01:59 39.9 °F 37.6 °F 29.9 in SE 2.9 mph 3 mph 91% 0 in 0 W/m2
02:04 39.9 °F 37.6 °F 29.9 in Calm   1 mph 91% 0 in 0 W/m2
02:09 39.9 °F 37.8 °F 29.9 in SW 2 mph 2 mph 92% 0 in 0 W/m2
02:14 39.9 °F 37.8 °F 29.9 in NW 0.9 mph 2 mph 92% 0 in 0 W/m2
02:19 40.3 °F 38.1 °F 29.9 in Calm   3 mph 92% 0 in 0 W/m2
02:24 40.5 °F 38.3 °F 29.9 in Calm     92% 0 in 0 W/m2
02:29 40.5 °F 38.3 °F 29.9 in SW 0.9 mph 3 mph 92% 0 in 0 W/m2
02:34 40.6 °F 38.5 °F 29.9 in SW 0.9 mph 2 mph 92% 0 in 0 W/m2
02:39 40.8 °F 38.5 °F 29.9 in Calm   3 mph 91% 0 in 0 W/m2
02:44 41 °F 38.3 °F 29.9 in SW 0.9 mph 2 mph 90% 0 in 0 W/m2
02:49 41.2 °F 38.5 °F 29.9 in Calm   3 mph 90% 0 in 0 W/m2
02:54 41.4 °F 38.7 °F 29.9 in WSW 0.9 mph 1 mph 90% 0 in 0 W/m2
02:59 41.4 °F 38.7 °F 29.9 in West 0.9 mph 1 mph 90% 0 in 0 W/m2
03:04 41.4 °F 38.7 °F 29.9 in Calm   3 mph 90% 0 in 0 W/m2
03:09 41.5 °F 38.5 °F 29.9 in South 0.9 mph 3 mph 89% 0 in 0 W/m2
03:14 41.5 °F 38.5 °F 29.9 in Calm   2 mph 89% 0 in 0 W/m2
03:19 41.5 °F 38.5 °F 29.9 in ENE 0.9 mph 3 mph 89% 0 in 0 W/m2
03:24 41.5 °F 38.5 °F 29.9 in Calm   1 mph 89% 0 in 0 W/m2
03:29 41.5 °F 38.5 °F 29.9 in SW 0.9 mph 4 mph 89% 0 in 0 W/m2
03:34 41.5 °F 38.5 °F 29.9 in West 0.9 mph 3 mph 89% 0 in 0 W/m2
03:39 41.5 °F 38.5 °F 29.9 in Calm   4 mph 89% 0 in 0 W/m2
03:44 41.5 °F 38.5 °F 29.9 in SE 0.9 mph 4 mph 89% 0 in 0 W/m2
03:49 41.5 °F 38.5 °F 29.8 in SSE 4 mph 4 mph 89% 0 in 0 W/m2
03:54 41.5 °F 38.5 °F 29.8 in ESE 0.9 mph 3 mph 89% 0 in 0 W/m2
03:59 41.7 °F 38.7 °F 29.8 in East 0.9 mph 3 mph 89% 0 in 0 W/m2
04:04 41.7 °F 38.7 °F 29.8 in Calm   2 mph 89% 0 in 0 W/m2
04:09 41.7 °F 38.7 °F 29.8 in Calm     89% 0 in 0 W/m2
04:14 41.7 °F 38.7 °F 29.8 in Calm   3 mph 89% 0.01 in 0 W/m2
04:19 41.7 °F 38.7 °F 29.8 in Calm   1 mph 89% 0.01 in 0 W/m2
04:24 41.7 °F 39 °F 29.8 in ESE 0.9 mph 1 mph 90% 0.01 in 0 W/m2
04:29 41.7 °F 39 °F 29.8 in SE 2 mph 2 mph 90% 0.01 in 0 W/m2
04:34 41.7 °F 39 °F 29.8 in Calm   2 mph 90% 0.01 in 0 W/m2
04:39 41.7 °F 39 °F 29.8 in ESE 0.9 mph 2 mph 90% 0.01 in 0 W/m2
04:44 41.7 °F 39 °F 29.8 in Calm     90% 0.01 in 0 W/m2
04:49 41.7 °F 39 °F 29.8 in ESE 2 mph 2 mph 90% 0.01 in 0 W/m2
04:54 41.5 °F 38.8 °F 29.8 in Calm     90% 0.01 in 0 W/m2
04:59 41.5 °F 39.2 °F 29.8 in NNW 0.9 mph 1 mph 91% 0.01 in 0 W/m2
05:04 41.5 °F 39.2 °F 29.8 in NNW 0.9 mph 1 mph 91% 0.02 in 0 W/m2
05:09 41.5 °F 39.2 °F 29.8 in NNW 0.9 mph 1 mph 91% 0.02 in 0 W/m2
05:14 41.5 °F 39.2 °F 29.8 in Calm   1 mph 91% 0.02 in 0 W/m2
05:19 41.5 °F 39.2 °F 29.8 in Calm     91% 0.02 in 0 W/m2
05:24 41.4 °F 39 °F 29.8 in Calm     91% 0.02 in 0 W/m2
05:29 41.4 °F 39.2 °F 29.8 in Calm   2 mph 92% 0.02 in 0 W/m2
05:34 41.4 °F 39.2 °F 29.8 in Calm     92% 0.03 in 0 W/m2
05:39 41.4 °F 39.2 °F 29.8 in Calm     92% 0.04 in 0 W/m2
05:44 41.4 °F 39.2 °F 29.8 in WNW 0.9 mph 2 mph 92% 0.04 in 0 W/m2
05:49 41.4 °F 39.2 °F 29.8 in WNW 0.9 mph 1 mph 92% 0.05 in 0 W/m2
05:54 41.4 °F 39.2 °F 29.8 in Calm   2 mph 92% 0.06 in 0 W/m2
05:59 41.4 °F 39.2 °F 29.8 in Calm   1 mph 92% 0.05 in 0 W/m2
06:04 41.4 °F 39.2 °F 29.8 in NE 0.9 mph 2 mph 92% 0.06 in 0 W/m2
06:09 41.4 °F 39.2 °F 29.8 in ESE 0.9 mph 4 mph 92% 0.06 in 0 W/m2
06:14 41.4 °F 39.2 °F 29.8 in Calm   2 mph 92% 0.06 in 0 W/m2
06:19 41.4 °F 39.6 °F 29.8 in East 2 mph 4 mph 93% 0.06 in 0 W/m2
06:24 41.4 °F 39.6 °F 29.8 in WSW 0.9 mph 2 mph 93% 0.06 in 0 W/m2
06:29 41.4 °F 39.6 °F 29.8 in Calm   1 mph 93% 0.06 in 5 W/m2
06:34 41.4 °F 39.6 °F 29.8 in Calm   2 mph 93% 0.05 in 7 W/m2
06:39 41.4 °F 39.6 °F 29.8 in SE 2 mph 2 mph 93% 0.04 in 7 W/m2
06:44 41.2 °F 39.4 °F 29.8 in Calm   2 mph 93% 0.04 in 9 W/m2
06:49 41.2 °F 39.4 °F 29.8 in WSW 3 mph 3 mph 93% 0.03 in 14 W/m2
06:54 41.2 °F 39.4 °F 29.8 in East 2 mph 3 mph 93% 0.02 in 21 W/m2
06:59 41.2 °F 39.4 °F 29.8 in Calm   4 mph 93% 0.02 in 14 W/m2
07:04 41.2 °F 39.4 °F 29.8 in East 4 mph 4 mph 93% 0.02 in 23 W/m2
07:09 41.2 °F 39.4 °F 29.8 in NW 2 mph 4 mph 93% 0.01 in 23 W/m2
07:14 41.2 °F 39.4 °F 29.8 in East 0.9 mph 3 mph 93% 0.01 in 16 W/m2
07:19 41.2 °F 39 °F 29.8 in NW 0.9 mph 4 mph 92% 0 in 23 W/m2
07:24 41.4 °F 39.2 °F 29.8 in Calm   1 mph 92% 0 in 33 W/m2
07:29 41.4 °F 39.2 °F 29.8 in ESE 4 mph 4 mph 92% 0 in 33 W/m2
07:34 41.4 °F 39.2 °F 29.8 in WSW 2 mph 3 mph 92% 0 in 35 W/m2
07:39 41.5 °F 39.4 °F 29.8 in NW 2 mph 2 mph 92% 0 in 35 W/m2
07:44 41.5 °F 39.4 °F 29.8 in North 0.9 mph 2 mph 92% 0 in 40 W/m2
07:50 41.5 °F 39.4 °F 29.8 in North 0.9 mph 2 mph 92% 0 in 46 W/m2
07:55 41.5 °F 39.4 °F 29.8 in WNW 0.9 mph 5 mph 92% 0 in 54 W/m2
08:00 41.7 °F 39.6 °F 29.8 in Calm   1 mph 92% 0 in 65 W/m2
08:05 41.7 °F 39.6 °F 29.8 in NW 0.9 mph 5 mph 92% 0 in 63 W/m2
08:10 41.9 °F 39.7 °F 29.8 in NNW 0.9 mph 4 mph 92% 0 in 69 W/m2
08:15 42.1 °F 39.9 °F 29.8 in East 0.9 mph 1 mph 92% 0 in 74 W/m2
08:20 42.3 °F 40.1 °F 29.8 in NNE 2 mph 4 mph 92% 0 in 83 W/m2
08:25 42.3 °F 40.1 °F 29.8 in NNW 0.9 mph 2 mph 92% 0 in 104 W/m2
08:30 42.3 °F 40.1 °F 29.8 in ESE 0.9 mph 1 mph 92% 0 in 84 W/m2
08:35 42.4 °F 40.3 °F 29.8 in Calm   2 mph 92% 0 in 74 W/m2
08:40 42.6 °F 40.5 °F 29.8 in East 0.9 mph 3 mph 92% 0 in 86 W/m2
08:45 42.6 °F 40.5 °F 29.8 in ESE 0.9 mph 4 mph 92% 0 in 111 W/m2
08:50 42.8 °F 40.6 °F 29.8 in North 2.9 mph 3 mph 92% 0 in 118 W/m2
08:55 43 °F 40.8 °F 29.8 in Calm   4 mph 92% 0 in 128 W/m2
09:00 43.2 °F 41 °F 29.8 in North 0.9 mph 3 mph 92% 0.01 in 181 W/m2
09:05 43.3 °F 41.2 °F 29.8 in North 0.9 mph 1 mph 92% 0.01 in 169 W/m2
09:10 43.5 °F 41.4 °F 29.8 in NNW 2 mph 2 mph 92% 0.01 in 151 W/m2
09:15 43.7 °F 41.5 °F 29.8 in Calm   1 mph 92% 0.01 in 148 W/m2
09:20 43.9 °F 41.4 °F 29.8 in SSE 0.9 mph 3 mph 91% 0.01 in 158 W/m2
09:25 44.1 °F 41.5 °F 29.8 in East 2 mph 4 mph 91% 0.01 in 197 W/m2
09:30 44.2 °F 41.7 °F 29.8 in SW 0.9 mph 3 mph 91% 0.01 in 229 W/m2
09:35 44.4 °F 41.9 °F 29.8 in Calm   3 mph 91% 0.01 in 288 W/m2
09:40 44.8 °F 42.3 °F 29.8 in East 0.9 mph 3 mph 91% 0.01 in 192 W/m2
09:45 45.1 °F 42.4 °F 29.8 in NNE 0.9 mph 2 mph 90% 0.01 in 258 W/m2
09:50 45.3 °F 42.6 °F 29.8 in WNW 2 mph 2 mph 90% 0.01 in 304 W/m2
09:55 45.3 °F 42.3 °F 29.8 in ENE 2 mph 3 mph 89% 0.01 in 199 W/m2
10:00 45.3 °F 41.9 °F 29.8 in NW 2 mph 4 mph 88% 0 in 107 W/m2
10:05 45.3 °F 41.9 °F 29.8 in East 2.9 mph 4 mph 88% 0 in 104 W/m2
10:10 45.3 °F 41.9 °F 29.8 in ENE 2 mph 2 mph 88% 0 in 111 W/m2
10:15 45.3 °F 41.9 °F 29.8 in NNE 0.9 mph 1 mph 88% 0 in 72 W/m2
10:20 45.1 °F 41.7 °F 29.8 in West 2 mph 3 mph 88% 0 in 77 W/m2
10:25 45 °F 41.5 °F 29.8 in Calm   2 mph 88% 0 in 91 W/m2
10:30 45 °F 41.5 °F 29.8 in NNW 0.9 mph 1 mph 88% 0 in 67 W/m2
10:35 45.1 °F 42.1 °F 29.8 in Calm     89% 0 in 51 W/m2
10:40 45 °F 41.5 °F 29.8 in NW 0.9 mph 2 mph 88% 0 in 63 W/m2
10:45 45 °F 41.5 °F 29.8 in Calm     88% 0 in 53 W/m2
10:50 45 °F 41.9 °F 29.8 in West 2 mph 3 mph 89% 0 in 113 W/m2
10:55 45 °F 41.9 °F 29.8 in Calm   3 mph 89% 0 in 139 W/m2
11:00 45 °F 41.9 °F 29.8 in North 0.9 mph 2 mph 89% 0 in 190 W/m2
11:05 45 °F 41.9 °F 29.8 in North 2 mph 4 mph 89% 0 in 227 W/m2
11:10 45.3 °F 42.3 °F 29.8 in Calm   1 mph 89% 0 in 396 W/m2
11:15 45.9 °F 43.2 °F 29.8 in NNE 0.9 mph 4 mph 90% 0 in 452 W/m2
11:20 46.6 °F 43.5 °F 29.8 in ENE 0.9 mph 4 mph 89% 0 in 438 W/m2
11:25 46.9 °F 43.5 °F 29.8 in South 0.9 mph 2 mph 88% 0 in 311 W/m2
11:30 47.3 °F 43.3 °F 29.8 in East 0.9 mph 4 mph 86% 0 in 230 W/m2
11:35 47.5 °F 43.5 °F 29.8 in Calm   3 mph 86% 0 in 371 W/m2
11:40 47.7 °F 44.1 °F 29.8 in ENE 2 mph 4 mph 87% 0 in 378 W/m2
11:45 47.8 °F 43.9 °F 29.8 in East 0.9 mph 3 mph 86% 0 in 229 W/m2
11:50 48 °F 44.1 °F 29.8 in East 2 mph 3 mph 86% 0 in 239 W/m2
11:55 47.8 °F 43.9 °F 29.8 in East 2 mph 2 mph 86% 0 in 125 W/m2
12:01 47.8 °F 43.9 °F 29.7 in ENE 2 mph 2 mph 86% 0 in 74 W/m2
12:06 47.7 °F 43.7 °F 29.7 in East 0.9 mph 3 mph 86% 0 in 46 W/m2
12:11 47.5 °F 43.9 °F 29.7 in ESE 4 mph 4 mph 87% 0 in 42 W/m2
12:16 47.3 °F 43.9 °F 29.7 in SE 0.9 mph 2 mph 88% 0.01 in 58 W/m2
12:21 46.9 °F 43.9 °F 29.7 in Calm   3 mph 89% 0.02 in 62 W/m2
12:26 46.6 °F 43.5 °F 29.7 in Calm   2 mph 89% 0.02 in 77 W/m2
12:31 46.4 °F 43.7 °F 29.7 in South 0.9 mph 4 mph 90% 0.02 in 156 W/m2
12:36 46.2 °F 43.5 °F 29.7 in Calm   1 mph 90% 0.02 in 90 W/m2
12:41 46.4 °F 43.9 °F 29.7 in SE 0.9 mph 3 mph 91% 0.03 in 79 W/m2
12:46 46.2 °F 43.7 °F 29.7 in Calm   1 mph 91% 0.03 in 142 W/m2
12:51 46.4 °F 43.9 °F 29.7 in Calm   1 mph 91% 0.04 in 111 W/m2
12:56 46.6 °F 44.1 °F 29.7 in West 2 mph 3 mph 91% 0.04 in 162 W/m2
13:01 46.6 °F 44.1 °F 29.7 in NNW 0.9 mph 3 mph 91% 0.04 in 172 W/m2
13:06 46.8 °F 44.2 °F 29.7 in Calm   2 mph 91% 0.04 in 200 W/m2
13:11 46.9 °F 44.2 °F 29.7 in NW 2 mph 3 mph 90% 0.04 in 213 W/m2
13:16 47.1 °F 44.4 °F 29.7 in ESE 2 mph 2 mph 90% 0.03 in 243 W/m2
13:21 47.5 °F 44.8 °F 29.7 in East 0.9 mph 3 mph 90% 0.02 in 165 W/m2
13:26 47.7 °F 44.6 °F 29.7 in Calm   2 mph 89% 0.02 in 130 W/m2
13:31 47.7 °F 44.6 °F 29.7 in ENE 2.9 mph 3 mph 89% 0.02 in 120 W/m2
13:36 47.7 °F 44.2 °F 29.7 in East 0.9 mph 1 mph 88% 0.02 in 91 W/m2
13:41 47.5 °F 44.1 °F 29.7 in ENE 0.9 mph 2 mph 88% 0.01 in 69 W/m2
13:46 47.3 °F 43.9 °F 29.7 in Calm   1 mph 88% 0.01 in 69 W/m2
13:51 47.1 °F 44.1 °F 29.7 in East 2 mph 2 mph 89% 0.01 in 162 W/m2
14:11 46.9 °F 43.9 °F 29.7 in East 0.9 mph 2 mph 89% 0.01 in 98 W/m2
14:16 46.9 °F 44.2 °F 29.7 in ENE 2.9 mph 3 mph 90% 0.01 in 105 W/m2
14:21 46.9 °F 44.2 °F 29.7 in Calm   2 mph 90% 0.01 in 102 W/m2
14:26 46.9 °F 44.2 °F 29.7 in East 0.9 mph 4 mph 90% 0.02 in 116 W/m2
14:31 46.9 °F 44.2 °F 29.7 in East 0.9 mph 2 mph 90% 0.02 in 72 W/m2
14:36 46.8 °F 44.1 °F 29.7 in East 2 mph 4 mph 90% 0.02 in 109 W/m2
14:46 46.6 °F 43.9 °F 29.7 in ENE 4 mph 7 mph 90% 0.02 in 97 W/m2
14:51 46.2 °F 43.5 °F 29.7 in SSW 2.9 mph 6 mph 90% 0.02 in 130 W/m2
14:56 46.2 °F 43.5 °F 29.7 in East 2.9 mph 7 mph 90% 0.02 in 105 W/m2
15:02 46 °F 43.3 °F 29.7 in ESE 0.9 mph 4 mph 90% 0.02 in 100 W/m2
15:07 46 °F 43.5 °F 29.7 in ESE 0.9 mph 6 mph 91% 0.02 in 167 W/m2
15:12 46.2 °F 43.7 °F 29.7 in ENE 0.9 mph 2 mph 91% 0.02 in 174 W/m2
15:17 46.6 °F 44.4 °F 29.6 in ESE 2 mph 3 mph 92% 0.02 in 158 W/m2
15:22 46.6 °F 44.1 °F 29.6 in East 2 mph 4 mph 91% 0.02 in 162 W/m2
15:27 46.6 °F 44.1 °F 29.6 in Calm   4 mph 91% 0.02 in 81 W/m2
15:32 46.6 °F 44.1 °F 29.6 in Calm   3 mph 91% 0.02 in 102 W/m2
15:37 46.6 °F 44.1 °F 29.6 in Calm   2 mph 91% 0.01 in 104 W/m2
15:42 46.6 °F 44.1 °F 29.6 in ESE 2 mph 2 mph 91% 0.02 in 90 W/m2
15:47 46.6 °F 44.1 °F 29.6 in Calm     91% 0.02 in 54 W/m2
15:52 46.6 °F 44.1 °F 29.6 in East 2 mph 2 mph 91% 0.02 in 123 W/m2
15:57 46.6 °F 44.1 °F 29.6 in East 2.9 mph 3 mph 91% 0.02 in 130 W/m2
16:02 46.6 °F 44.1 °F 29.6 in ESE 0.9 mph 2 mph 91% 0.03 in 107 W/m2
16:07 46.4 °F 44.2 °F 29.6 in SE 2 mph 3 mph 92% 0.04 in 63 W/m2
16:12 46.2 °F 44.1 °F 29.6 in Calm   1 mph 92% 0.05 in 86 W/m2
16:17 46.2 °F 44.1 °F 29.6 in ESE 0.9 mph 2 mph 92% 0.04 in 67 W/m2
16:22 46.2 °F 44.2 °F 29.6 in East 2.9 mph 3 mph 93% 0.04 in 39 W/m2
16:27 46 °F 44.1 °F 29.6 in Calm   2 mph 93% 0.05 in 49 W/m2
16:32 45.9 °F 43.9 °F 29.6 in East 0.9 mph 3 mph 93% 0.05 in 137 W/m2
16:37 45.9 °F 43.9 °F 29.6 in SE 2 mph 4 mph 93% 0.06 in 69 W/m2
16:42 45.9 °F 43.9 °F 29.6 in Calm   1 mph 93% 0.05 in 46 W/m2
16:47 45.9 °F 43.9 °F 29.6 in ENE 0.9 mph 3 mph 93% 0.04 in 79 W/m2
16:52 45.7 °F 44.1 °F 29.6 in East 2 mph 2 mph 94% 0.04 in 56 W/m2
16:57 45.7 °F 44.1 °F 29.6 in ENE 2 mph 4 mph 94% 0.04 in 42 W/m2
17:02 45.7 °F 44.1 °F 29.6 in East 0.9 mph 1 mph 94% 0.03 in 37 W/m2
17:07 45.7 °F 44.1 °F 29.6 in East 0.9 mph 4 mph 94% 0.02 in 39 W/m2
17:12 45.7 °F 44.1 °F 29.6 in Calm   1 mph 94% 0.02 in 42 W/m2
17:17 45.9 °F 44.2 °F 29.6 in ENE 0.9 mph 2 mph 94% 0.02 in 49 W/m2
17:22 45.7 °F 44.1 °F 29.6 in NE 0.9 mph 4 mph 94% 0.03 in 42 W/m2
17:27 45.7 °F 44.1 °F 29.6 in NNW 2 mph 2 mph 94% 0.02 in 40 W/m2
17:32 45.7 °F 44.1 °F 29.6 in Calm   4 mph 94% 0.03 in 49 W/m2
17:37 45.7 °F 44.1 °F 29.6 in NNE 0.9 mph 2 mph 94% 0.02 in 37 W/m2
17:42 45.7 °F 44.1 °F 29.6 in ESE 2 mph 3 mph 94% 0.03 in 65 W/m2
17:47 45.7 °F 44.1 °F 29.6 in NE 0.9 mph 2 mph 94% 0.04 in 47 W/m2
17:52 45.9 °F 44.2 °F 29.6 in Calm   2 mph 94% 0.04 in 30 W/m2
17:57 45.9 °F 44.2 °F 29.6 in NNW 0.9 mph 2 mph 94% 0.04 in 30 W/m2
18:02 45.9 °F 44.2 °F 29.6 in East 4 mph 4 mph 94% 0.05 in 26 W/m2
18:07 45.7 °F 44.1 °F 29.6 in West 2.9 mph 4 mph 94% 0.05 in 21 W/m2
18:12 45.7 °F 44.4 °F 29.6 in WNW 2.9 mph 4 mph 95% 0.06 in 32 W/m2
18:17 45.7 °F 44.4 °F 29.6 in Calm   1 mph 95% 0.05 in 49 W/m2
18:22 45.7 °F 44.4 °F 29.6 in West 4 mph 7 mph 95% 0.05 in 33 W/m2
18:27 45.7 °F 44.4 °F 29.6 in WNW 2 mph 4 mph 95% 0.05 in 32 W/m2
18:32 45.7 °F 44.4 °F 29.6 in WNW 4 mph 8 mph 95% 0.05 in 28 W/m2
18:37 45.7 °F 44.4 °F 29.6 in WNW 2.9 mph 7 mph 95% 0.05 in 42 W/m2
18:42 45.7 °F 44.4 °F 29.6 in WNW 2.9 mph 4 mph 95% 0.05 in 33 W/m2
18:47 45.7 °F 44.4 °F 29.6 in NW 0.9 mph 7 mph 95% 0.04 in 47 W/m2
18:52 45.7 °F 44.4 °F 29.6 in NNW 0.9 mph 4 mph 95% 0.04 in 70 W/m2
18:57 45.9 °F 44.4 °F 29.6 in NW 2 mph 4 mph 95% 0.04 in 98 W/m2
19:07 45.9 °F 44.4 °F 29.6 in ESE 2 mph 3 mph 95% 0.03 in 88 W/m2
19:12 46 °F 44.6 °F 29.6 in North 2 mph 3 mph 95% 0.02 in 51 W/m2
Juneau County Weather
Compliments of Weather Underground - 4 mb